• En España
  • Lista de países
  • Para 7 días
  • Temperatura del agua
  • Mapa Satelital
  • El tiempo en el mapa
  • Informadores
  • user-avatar
    Iniciar sesión

    Tiempo cada hora Rio Maior

    Hoy, 23 Enero, Martes

    Tiempo Temperatura Precipitaciones Viento Presión Humedad
    00:00 +9°C° 0 mm 3 mps 766 mmHg 95%
    01:00 +9°C° 0 mm 3 mps 766 mmHg 95%
    02:00 +9°C° 0 mm 3 mps 766 mmHg 96%
    03:00 +9°C° 0 mm 2 mps 766 mmHg 96%
    04:00 +9°C° 0 mm 2 mps 766 mmHg 95%
    05:00 +8°C° 0 mm 2 mps 766 mmHg 95%
    06:00 +9°C° 0 mm 2 mps 766 mmHg 94%
    07:00 +9°C° 0 mm 2 mps 766 mmHg 93%
    08:00 +10°C° 0 mm 2 mps 766 mmHg 91%
    09:00 +13°C° 0 mm 2 mps 766 mmHg 83%
    10:00 +14°C° 0 mm 3 mps 766 mmHg 74%
    11:00 +17°C° 0 mm 3 mps 766 mmHg 66%
    12:00 +17°C° 0 mm 3 mps 766 mmHg 64%
    13:00 +18°C° 0 mm 3 mps 765 mmHg 62%
    14:00 +19°C° 0 mm 3 mps 765 mmHg 61%
    15:00 +17°C° 0 mm 3 mps 765 mmHg 70%
    16:00 +14°C° 0 mm 3 mps 765 mmHg 79%
    17:00 +12°C° 0 mm 3 mps 765 mmHg 88%
    18:00 +11°C° 0 mm 3 mps 765 mmHg 91%
    19:00 +11°C° 0 mm 3 mps 765 mmHg 93%
    20:00 +10°C° 0 mm 2 mps 765 mmHg 96%
    21:00 +10°C° 0 mm 2 mps 765 mmHg 96%
    22:00 +10°C° 0 mm 2 mps 765 mmHg 96%
    23:00 +9°C° 0 mm 2 mps 765 mmHg 97%

    Mañana, 24 Enero, Miércoles

    Tiempo Temperatura Precipitaciones Viento Presión Humedad
    00:00 +9°C° 0 mm 2 mps 765 mmHg 97%
    01:00 +10°C° 0 mm 1 mps 765 mmHg 97%
    02:00 +9°C° 0 mm 1 mps 765 mmHg 97%
    03:00 +9°C° 0 mm 1 mps 764 mmHg 97%
    04:00 +9°C° 0 mm 1 mps 764 mmHg 97%
    05:00 +9°C° 0 mm 1 mps 764 mmHg 97%
    06:00 +9°C° 0 mm 1 mps 764 mmHg 96%
    07:00 +10°C° 0 mm 1 mps 764 mmHg 95%
    08:00 +10°C° 0 mm 1 mps 765 mmHg 94%
    09:00 +12°C° 0 mm 1 mps 765 mmHg 85%
    10:00 +14°C° 0 mm 1 mps 765 mmHg 76%
    11:00 +16°C° 0 mm 1 mps 765 mmHg 67%
    12:00 +16°C° 0 mm 1 mps 764 mmHg 64%
    13:00 +17°C° 0 mm 2 mps 764 mmHg 61%
    14:00 +17°C° 0 mm 2 mps 763 mmHg 58%
    15:00 +16°C° 0 mm 2 mps 763 mmHg 67%
    16:00 +14°C° 0 mm 2 mps 763 mmHg 75%
    17:00 +13°C° 0 mm 2 mps 763 mmHg 83%
    18:00 +12°C° 0 mm 2 mps 763 mmHg 86%
    19:00 +12°C° 0 mm 2 mps 763 mmHg 90%
    20:00 +10°C° 0 mm 2 mps 763 mmHg 93%
    21:00 +10°C° 0 mm 2 mps 763 mmHg 93%
    22:00 +10°C° 0 mm 2 mps 763 mmHg 93%
    23:00 +11°C° 0 mm 3 mps 763 mmHg 94%

    Pasado mañana, 25 Enero, Jueves

    Tiempo Temperatura Precipitaciones Viento Presión Humedad
    00:00 +11°C° 0,3 mm 3 mps 763 mmHg 94%
    01:00 +11°C° 0,3 mm 3 mps 763 mmHg 95%
    02:00 +12°C° 0,3 mm 3 mps 762 mmHg 96%
    03:00 +12°C° 0,3 mm 3 mps 762 mmHg 96%
    04:00 +12°C° 0,3 mm 3 mps 762 mmHg 96%
    05:00 +12°C° 0,3 mm 3 mps 762 mmHg 96%
    06:00 +12°C° 0,1 mm 3 mps 762 mmHg 94%
    07:00 +12°C° 0,1 mm 3 mps 762 mmHg 93%
    08:00 +12°C° 0,1 mm 4 mps 763 mmHg 92%
    09:00 +13°C° 0,1 mm 5 mps 763 mmHg 84%
    10:00 +14°C° 0,1 mm 5 mps 763 mmHg 76%
    11:00 +14°C° 0,1 mm 6 mps 763 mmHg 68%
    12:00 +14°C° 0,1 mm 7 mps 763 mmHg 65%
    13:00 +14°C° 0,1 mm 7 mps 763 mmHg 63%
    14:00 +14°C° 0,1 mm 7 mps 762 mmHg 61%
    15:00 +11°C° 0 mm 7 mps 763 mmHg 65%
    16:00 +10°C° 0 mm 6 mps 763 mmHg 69%
    17:00 +9°C° 0 mm 6 mps 763 mmHg 73%
    18:00 +8°C° 0 mm 6 mps 764 mmHg 75%
    19:00 +8°C° 0 mm 5 mps 764 mmHg 76%
    20:00 +7°C° 0 mm 5 mps 765 mmHg 78%
    21:00 +7°C° 0,1 mm 5 mps 765 mmHg 79%
    22:00 +6°C° 0,1 mm 5 mps 766 mmHg 79%
    23:00 +6°C° 0,1 mm 5 mps 766 mmHg 80%

    26 Enero, Viernes

    Tiempo Temperatura Precipitaciones Viento Presión Humedad
    00:00 +6°C° 0,1 mm 5 mps 766 mmHg 81%
    01:00 +6°C° 0,1 mm 5 mps 766 mmHg 83%
    02:00 +5°C° 0,1 mm 5 mps 766 mmHg 84%
    03:00 +5°C° 0,1 mm 5 mps 766 mmHg 85%
    04:00 +5°C° 0,1 mm 5 mps 766 mmHg 86%
    05:00 +5°C° 0,1 mm 5 mps 766 mmHg 87%
    06:00 +6°C° 0 mm 5 mps 767 mmHg 84%
    07:00 +6°C° 0 mm 5 mps 768 mmHg 82%
    08:00 +6°C° 0 mm 5 mps 768 mmHg 80%
    09:00 +8°C° 0 mm 5 mps 769 mmHg 70%
    10:00 +10°C° 0 mm 6 mps 769 mmHg 60%
    11:00 +12°C° 0 mm 7 mps 769 mmHg 51%
    12:00 +12°C° 0 mm 7 mps 769 mmHg 50%
    13:00 +12°C° 0 mm 7 mps 769 mmHg 50%
    14:00 +12°C° 0 mm 7 mps 769 mmHg 50%
    15:00 +11°C° 0 mm 6 mps 769 mmHg 57%
    16:00 +10°C° 0 mm 6 mps 769 mmHg 64%
    17:00 +9°C° 0 mm 5 mps 769 mmHg 71%
    18:00 +8°C° 0 mm 5 mps 770 mmHg 74%
    19:00 +8°C° 0 mm 5 mps 770 mmHg 78%
    20:00 +7°C° 0 mm 5 mps 771 mmHg 82%
    21:00 +7°C° 0 mm 5 mps 771 mmHg 82%
    22:00 +7°C° 0 mm 5 mps 771 mmHg 82%
    23:00 +7°C° 0 mm 5 mps 771 mmHg 83%

    27 Enero, Sábado

    Tiempo Temperatura Precipitaciones Viento Presión Humedad
    00:00 +6°C° 0 mm 5 mps 771 mmHg 82%
    01:00 +6°C° 0 mm 5 mps 771 mmHg 81%
    02:00 +6°C° 0 mm 5 mps 771 mmHg 80%
    03:00 +6°C° 0 mm 5 mps 770 mmHg 81%
    04:00 +5°C° 0 mm 5 mps 770 mmHg 81%
    05:00 +5°C° 0 mm 5 mps 770 mmHg 81%
    06:00 +5°C° 0 mm 5 mps 771 mmHg 79%
    07:00 +6°C° 0 mm 5 mps 771 mmHg 77%
    08:00 +6°C° 0 mm 5 mps 771 mmHg 75%
    09:00 +8°C° 0 mm 5 mps 771 mmHg 68%
    10:00 +10°C° 0 mm 6 mps 771 mmHg 60%
    11:00 +13°C° 0 mm 6 mps 771 mmHg 53%
    12:00 +14°C° 0 mm 6 mps 770 mmHg 52%
    13:00 +15°C° 0 mm 6 mps 770 mmHg 51%
    14:00 +15°C° 0 mm 6 mps 769 mmHg 50%
    15:00 +13°C° 0 mm 6 mps 769 mmHg 57%
    16:00 +12°C° 0 mm 5 mps 769 mmHg 64%
    17:00 +9°C° 0 mm 5 mps 769 mmHg 71%
    18:00 +9°C° 0 mm 5 mps 769 mmHg 75%
    19:00 +8°C° 0 mm 5 mps 770 mmHg 79%
    20:00 +7°C° 0 mm 4 mps 770 mmHg 82%
    21:00 +7°C° 0 mm 4 mps 770 mmHg 83%
    22:00 +7°C° 0 mm 4 mps 769 mmHg 84%
    23:00 +7°C° 0 mm 4 mps 769 mmHg 85%

    28 Enero, Domingo

    Tiempo Temperatura Precipitaciones Viento Presión Humedad
    00:00 +6°C° 0 mm 4 mps 769 mmHg 85%
    01:00 +6°C° 0 mm 4 mps 768 mmHg 85%
    02:00 +6°C° 0 mm 4 mps 768 mmHg 85%
    03:00 +6°C° 0 mm 4 mps 768 mmHg 85%
    04:00 +6°C° 0 mm 4 mps 767 mmHg 86%
    05:00 +6°C° 0 mm 4 mps 767 mmHg 86%
    06:00 +7°C° 0 mm 4 mps 767 mmHg 82%
    07:00 +7°C° 0 mm 4 mps 767 mmHg 79%
    08:00 +8°C° 0 mm 4 mps 767 mmHg 76%
    09:00 +10°C° 0 mm 5 mps 767 mmHg 69%
    10:00 +14°C° 0 mm 5 mps 767 mmHg 62%
    11:00 +16°C° 0 mm 5 mps 767 mmHg 56%
    12:00 +16°C° 0 mm 5 mps 767 mmHg 55%
    13:00 +16°C° 0 mm 5 mps 766 mmHg 54%
    14:00 +16°C° 0 mm 5 mps 766 mmHg 53%
    15:00 +14°C° 0 mm 4 mps 766 mmHg 57%
    16:00 +13°C° 0 mm 3 mps 766 mmHg 62%
    17:00 +11°C° 0 mm 3 mps 766 mmHg 66%
    18:00 +10°C° 0 mm 3 mps 766 mmHg 69%
    19:00 +8°C° 0 mm 2 mps 767 mmHg 72%
    20:00 +7°C° 0 mm 2 mps 767 mmHg 74%
    21:00 +7°C° 0 mm 2 mps 767 mmHg 74%
    22:00 +7°C° 0 mm 2 mps 767 mmHg 74%
    23:00 +6°C° 0 mm 2 mps 766 mmHg 74%
    Mostrar más